World > North America > United States > Georgia   City of Augusta, Georgia

Augusta, Georgia Regional Weather

Lat: 33.46N, Lon: 82W
Wx Zone: GAZ065Web Search

Helpful Tip: Type the letters wx in the search engine next time you need to find us.

Feedback


°F Click to change Augusta hourly weather to Imperial units.Click to change Augusta hourly weather to Metric units. °C
Augusta Weather Map
UTC Time: 5/6/2021, 15:42
Your Time:

Augusta, GA Regional Weather

Expires:202105061600;;687798
ASUS42 KCHS 061526
RWRCHS

Regional Weather Roundup
National Weather Service Charleston SC
1100 AM EDT THU MAY 06 2021

NOTE: "fair" indicates few or no clouds below 12,000 feet with no
significant weather and/or obstructions to visibility.

Not all stations are quality controlled. Use data with caution,
especially dewpoint observations.


GAZ063-065-086>088-099>101-113>116-118-119-134>141-150-061600-
...Southeast Georgia...
  
CITY           SKY/WX    TMP DP  RH WIND       PRES   REMARKS
Savannah Arpt  MOSUNNY   77  60  55 NW9       30.01F                  
Hunter AAF     SUNNY     79  61  53 NW8       29.98F HAZE             
Fort Stewart   SUNNY     78  61  56 NW9       30.00S                  
Statesboro     SUNNY     73  57  57 W6        30.03S                  
Sylvania       SUNNY     74  59  59 CALM      30.03F                  
Claxton        FAIR      76  57  51 NW9       30.03S                  
Millen         FAIR      71  56  59 E3        30.02F                  
Metter         FAIR      75  58  54 NW7       30.03F                  
Reidsville     FAIR      75  57  52 W7        30.04S                  

...CSRA, Central and far Southeast Georgia...
  
CITY           SKY/WX    TMP DP  RH WIND       PRES   REMARKS
Thomson        CLOUDY    69  56  63 SE5       30.05S                  
Augusta-Bush   SUNNY     73  52  47 SE8       30.02F                  
Augusta-Daniel SUNNY     69  49  48 E5        30.04F                  
Swainsboro     FAIR      72  46  40 N5        30.04F                  
Vidalia        SUNNY     75  57  53 NW7       30.04F                  
Eastman        FAIR      72  55  54 W7        30.06F                  
Hazlehurst     FAIR      74  55  51 NW3       30.05S                  
Alma           SUNNY     75  60  59 NW6       30.05R                  
Waycross       MOSUNNY   78  59  52 N5        30.05S                  
Jesup          NOT AVBL                                               
Baxley         FAIR      73  55  53 NW9       30.05R                  
Brunswick      PTSUNNY   80  65  60 SW12      30.02S                  
Saint Simons   SUNNY     81  67  62 W8        30.01S                  

$$


SKY/WX - Weather  TMP - Temperature  DP - Dew Point  RH - Relative Humidity
WIND - Wind Direction/Speed PRES - Barometric Pressure VSB - Visibility
WCI - Wind Chill Index E13G22 Wind - East Wind 13 mph/Gusts of 22 mph